Location: Bernadets
(43.3537°N, 0.3167°E)
Time: 01:06:26
(UTC+00:00)

CZ-4B R/B - Pass Details

Date: 24 October 2021
Orbit: 808 x 882 km, 99.1° (Epoch: 06 December)

Event Time Altitude Azimuth Distance (km) Brightness Sun altitude
Rises 18:25:10 0° 176° (S) 3,460 6.4 -15.9°
Reaches altitude 10° 18:27:35 10° 180° (S) 2,530 5.7 -16.3°
Maximum altitude 18:33:08 57° 259° (WSW) 1,037 4.0 -17.3°
Drops below altitude 10° 18:38:43 10° 338° (NNW) 2,546 6.0 -18.3°
Sets 18:41:10 0° 342° (NNW) 3,484 6.7 -18.8°
